Weather History for EGDY - September, 2012

Change the Weather History Date:

Thursday, September 6, 2012

  Actual Average Record
Temperature  
Mean Temperature 56 °F -  
Max Temperature 68 °F 63 °F - ()
Min Temperature 43 °F 47 °F - ()
Degree Days  
Heating Degree Days 10    
Growing Degree Days 6 (Base 50)    
Moisture  
Dew Point 50 °F    
Average Humidity 79    
Maximum Humidity 100    
Minimum Humidity 48    
Precipitation  
Precipitation 0.00 in - - ()
Sea Level Pressure  
Sea Level Pressure 30.36 in    
Wind  
Wind Speed 2 mph ()    
Max Wind Speed 6 mph    
Max Gust Speed -    
Visibility 7.4 miles    
Events Fog    
T = Trace of Precipitation, MM = Missing Value Source: Averaged Metar Reports

Daily Weather History Graph

Daily Weather History Graph

Search for Another Location

Airport or City:

Trip Planner

Search our weather history database for the weather conditions in past years. The results will help you decide how hot, cold, wet, or windy it might be!

Date:

Astronomy

Sep. 06, 2012 Rise Set
Actual Time 6:32 AM BST 7:44 PM BST
Civil Twilight 5:58 AM BST 8:18 PM BST
Nautical Twilight 5:17 AM BST 8:59 PM BST
Astronomical Twilight 4:32 AM BST 9:43 PM BST
Moon 9:58 PM BST (9/6) 1:03 PM BST (9/6)
Length of Visible Light 14h 19m
Length of Day
13h 12m
Waning Gibbous, 69% of the Moon is Illuminated
Sep 6
Waning Gibbous
Sep 8
Last Quarter
Sep 16
New
Sep 22
First Quarter
Sep 30
Full

Hourly Weather History & Observations

Time (BST) Temp. Dew Point Humidity Pressure Visibility Wind Dir Wind Speed Gust Speed Precip Events Conditions
12:50 AM 49 °F 47 °F 88% 30.41 in 9 mi NE 1.2 mph - -   Clear
12:50 AM 50.0 °F 46.4 °F 87% 30.39 in - NE 1.2 mph - N/A   Clear
1:50 AM 50.0 °F 46.4 °F 87% 30.39 in - WSW 3.5 mph - N/A   Clear
2:50 AM 48.2 °F 46.4 °F 93% 30.39 in - West 3.5 mph - N/A   Clear
3:50 AM 46 °F 45 °F 96% 30.41 in 9 mi West 2.3 mph - -   Clear
3:50 AM 46.4 °F 44.6 °F 93% 30.39 in - West 2.3 mph - N/A   Clear
4:50 AM 44.6 °F 44.6 °F 100% 30.39 in 5.0 mi SSE 1.2 mph - N/A Fog Fog
5:50 AM 44.6 °F 42.8 °F 93% 30.39 in 6.2 mi East 1.2 mph - N/A   Partly Cloudy
6:50 AM 44 °F 44 °F 97% 30.41 in 6 mi East 1.2 mph - - Fog Patches of Fog
6:50 AM 44.6 °F 42.8 °F 93% 30.39 in 6.2 mi East 1.2 mph - N/A Fog Shallow Fog
7:50 AM 46.4 °F 46.4 °F 100% 30.39 in 5.6 mi South 2.3 mph - N/A   Mostly Cloudy
8:50 AM 51.8 °F 50.0 °F 94% 30.39 in 6.2 mi WNW 1.2 mph - N/A   Mostly Cloudy
9:50 AM 58 °F 53 °F 77% 30.41 in 7 mi SSW 1.2 mph - -   Scattered Clouds
9:50 AM 59.0 °F 53.6 °F 82% 30.39 in 6.2 mi SSW 1.2 mph - N/A   Mostly Cloudy
10:50 AM 64.4 °F 55.4 °F 73% 30.39 in 6.2 mi SSW 2.3 mph - N/A   Mostly Cloudy
11:50 AM 64.4 °F 50.0 °F 59% 30.39 in 6.2 mi WSW 5.8 mph - N/A   Mostly Cloudy
12:50 PM 66 °F 51 °F 48% 30.39 in 12 mi SW 5.8 mph - -   Scattered Clouds
12:50 PM 66.2 °F 50.0 °F 56% 30.39 in 6.2 mi SW 5.8 mph - N/A   Mostly Cloudy
1:50 PM 66.2 °F 51.8 °F 60% 30.36 in 6.2 mi SW 5.8 mph - N/A   Mostly Cloudy
2:50 PM 66.2 °F 51.8 °F 60% 30.36 in 6.2 mi WSW 4.6 mph - N/A   Mostly Cloudy
3:50 PM 67 °F 52 °F 49% 30.38 in 12 mi WSW 4.6 mph - -   Scattered Clouds
3:50 PM 68.0 °F 51.8 °F 56% 30.36 in 6.2 mi WSW 4.6 mph - N/A   Mostly Cloudy
4:50 PM 68.0 °F 53.6 °F 60% 30.33 in 6.2 mi WSW 5.8 mph - N/A   Mostly Cloudy
5:50 PM 68.0 °F 53.6 °F 60% 30.30 in - WSW 4.6 mph - N/A   Clear
6:50 PM 64 °F 55 °F 64% 30.31 in 12 mi NW 3.5 mph - -   Clear
6:50 PM 64.4 °F 55.4 °F 73% 30.30 in - NW 3.5 mph - N/A   Clear
7:50 PM 60.8 °F 53.6 °F 77% 30.30 in - WNW 3.5 mph - N/A   Clear
8:50 PM 57.2 °F 53.6 °F 88% 30.30 in - SSW 4.6 mph - N/A   Clear
9:50 PM 53 °F 51 °F 89% 30.33 in 9 mi WSW 2.3 mph - -   Clear
9:50 PM 53.6 °F 50.0 °F 88% 30.30 in - WSW 2.3 mph - N/A   Clear
10:50 PM 50.0 °F 50.0 °F 100% 30.30 in - SW 3.5 mph - N/A   Clear
11:50 PM 50.0 °F 48.2 °F 94% 30.30 in - West 2.3 mph - N/A   Clear